Weather reports worldwide

Advertisment
Ross-on-Wye, United Kingdom (99207): temperature & dewpoint: 12.07.2018 09:00:00 - 18.07.2018 09:00:00 (BST)Ross-on-Wye, United Kingdom (99207): precipitation: 12.07.2018 09:00:00 - 18.07.2018 09:00:00 (BST)
Date & Time tt [°C] td [°C] rr [mm]
18.07.2018 09:00:00 18,1 13,7 0,0
18.07.2018 08:00:00 17,1 13,2 0,0
18.07.2018 07:00:00 15,4 13,1 0,0
18.07.2018 06:00:00 14,2 12,0 0,0
18.07.2018 05:00:00 13,9 11,3 0,0
18.07.2018 04:00:00 13,8 11,4 0,0
18.07.2018 03:00:00 13,6 10,8 0,0
18.07.2018 02:00:00 13,8 11,1 0,0
18.07.2018 01:00:00 14,2 10,6 0,0
18.07.2018 00:00:00 15,9 10,7 0,0
17.07.2018 23:00:00 16,7 10,7 0,0
17.07.2018 22:00:00 17,2 10,5 0,0
17.07.2018 21:00:00 18,2 10,2 0,0
17.07.2018 20:00:00 19,7 9,9 0,0
17.07.2018 19:00:00 20,2 9,0 0,0
17.07.2018 18:00:00 20,9 9,8 0,0
17.07.2018 17:00:00 21,2 9,4 0,0
17.07.2018 16:00:00 20,7 9,4 0,0
17.07.2018 15:00:00 20,9 10,1 0,0
17.07.2018 14:00:00 20,3 8,8 0,0
17.07.2018 13:00:00 19,8 10,0 0,0
17.07.2018 12:00:00 20,2 11,9 0,0
17.07.2018 11:00:00 18,6 11,6 0,0
17.07.2018 10:00:00 18,8 12,1 0,0
17.07.2018 09:00:00 17,0 11,9 0,0
17.07.2018 08:00:00 15,0 12,4 0,0
17.07.2018 07:00:00 12,1 10,6 0,0
17.07.2018 06:00:00 11,4 10,0 0,0
17.07.2018 05:00:00 10,5 9,2 0,0
17.07.2018 04:00:00 11,4 10,0 0,0
17.07.2018 03:00:00 12,6 10,1 0,0
17.07.2018 02:00:00 12,7 10,1 0,0
17.07.2018 01:00:00 13,5 10,2 0,0
17.07.2018 00:00:00 14,0 10,6 0,0
16.07.2018 23:00:00 14,7 10,4 0,0
16.07.2018 22:00:00 16,4 11,3 0,0
16.07.2018 21:00:00 18,4 11,2 0,0
16.07.2018 20:00:00 20,4 10,4 0,0
16.07.2018 19:00:00 20,2 16,1 0,0
16.07.2018 18:00:00 18,4 15,7 0,2
16.07.2018 17:00:00 20,4 13,7 0,0
16.07.2018 16:00:00 23,0 13,6 0,0
16.07.2018 15:00:00 25,3 11,5 0,0
16.07.2018 14:00:00 25,1 12,2 0,0
16.07.2018 13:00:00 23,4 13,5 0,0
16.07.2018 12:00:00 22,3 13,8 0,0
16.07.2018 11:00:00 21,8 12,9 0,0
16.07.2018 10:00:00 19,7 14,3 0,0
16.07.2018 09:00:00 18,5 13,8 0,0
16.07.2018 08:00:00 17,0 13,3 0,0
16.07.2018 07:00:00 16,1 13,5 0,0
16.07.2018 06:00:00 15,1 12,6 0,0
16.07.2018 05:00:00 15,9 12,0 0,0
16.07.2018 04:00:00 16,7 11,3 0,0
16.07.2018 03:00:00 16,2 12,2 0,0
16.07.2018 02:00:00 17,6 11,3 0,0
16.07.2018 01:00:00 17,2 12,2 0,0
16.07.2018 00:00:00 16,9 11,8 0,0
15.07.2018 23:00:00 19,3 11,2 0,0
15.07.2018 22:00:00 20,5 10,6 0,0
15.07.2018 21:00:00 22,5 9,7 0,0
15.07.2018 20:00:00 24,8 9,2 0,0
15.07.2018 19:00:00 25,5 9,2 0,0
15.07.2018 18:00:00 25,7 9,1 0,0
15.07.2018 17:00:00 26,1 10,4 0,0
15.07.2018 16:00:00 25,3 11,3 0,0
15.07.2018 15:00:00 27,0 13,5 0,0
15.07.2018 14:00:00 24,9 11,6 0,0
15.07.2018 13:00:00 23,2 11,5 0,0
15.07.2018 12:00:00 23,9 13,5 0,0
15.07.2018 11:00:00 21,1 12,5 0,0
15.07.2018 10:00:00 20,0 13,5 0,0
15.07.2018 09:00:00 17,7 13,6 0,0
15.07.2018 08:00:00 15,1 13,1 0,0
15.07.2018 07:00:00 12,6 12,2 0,0
15.07.2018 06:00:00 11,5 11,1 0,0
15.07.2018 05:00:00 12,0 11,5 0,0
15.07.2018 04:00:00 12,6 12,0 0,0
15.07.2018 03:00:00 13,2 12,3 0,0
15.07.2018 02:00:00 14,4 13,0 0,0
15.07.2018 01:00:00 15,2 13,4 0,0
15.07.2018 00:00:00 16,8 12,6 0,0
14.07.2018 23:00:00 18,6 13,1 0,0
14.07.2018 22:00:00 19,9 13,0 0,0
14.07.2018 21:00:00 21,8 12,6 0,0
14.07.2018 20:00:00 23,4 13,2 0,0
14.07.2018 19:00:00 24,8 11,7 0,0
14.07.2018 18:00:00 25,4 11,5 0,0
14.07.2018 17:00:00 25,3 11,7 0,0
14.07.2018 16:00:00 25,2 9,8 0,0
14.07.2018 15:00:00 25,3 11,0 0,0
14.07.2018 14:00:00 24,7 13,0 0,0
14.07.2018 13:00:00 23,8 14,8 0,0
14.07.2018 12:00:00 21,9 15,2 0,0
14.07.2018 11:00:00 19,5 15,1 0,0
14.07.2018 10:00:00 17,4 15,4 0,0
14.07.2018 09:00:00 16,5 15,7 0,0
14.07.2018 08:00:00 16,0 15,7 0,0
14.07.2018 07:00:00 15,5 15,4 0,0
14.07.2018 06:00:00 15,2 15,2 0,0
14.07.2018 05:00:00 15,0 15,0 0,0
14.07.2018 04:00:00 15,1 15,0 0,0
14.07.2018 03:00:00 15,0 14,9 0,0
14.07.2018 02:00:00 15,1 14,9 0,0
14.07.2018 01:00:00 15,3 15,0 0,0
14.07.2018 00:00:00 15,8 15,4 0,0
13.07.2018 23:00:00 16,3 15,5 0,0
13.07.2018 22:00:00 17,4 16,1 0,0
13.07.2018 21:00:00 18,8 16,7 0,0
13.07.2018 20:00:00 18,2 16,7 0,2
13.07.2018 19:00:00 17,9 16,8 4,6
13.07.2018 18:00:00 18,3 16,8 3,8
13.07.2018 17:00:00 20,0 15,0 0,0
13.07.2018 16:00:00 23,1 14,1 0,0
13.07.2018 15:00:00 24,2 13,9 0,0
13.07.2018 14:00:00 26,0 15,6 0,0
13.07.2018 13:00:00 22,4 15,1 0,0
13.07.2018 12:00:00 22,9 15,2 0,0
13.07.2018 11:00:00 22,3 14,7 0,0
13.07.2018 10:00:00 20,6 13,8 0,0
13.07.2018 09:00:00 19,3 13,9 0,0
13.07.2018 08:00:00 16,6 13,0 0,0
13.07.2018 07:00:00 15,8 12,7 0,0
13.07.2018 06:00:00 15,8 12,4 0,0
13.07.2018 05:00:00 16,0 12,4 0,0
13.07.2018 04:00:00 16,6 13,0 0,0
13.07.2018 03:00:00 17,1 14,1 0,0
13.07.2018 02:00:00 17,5 14,6 0,0
13.07.2018 01:00:00 18,1 14,9 0,0
13.07.2018 00:00:00 18,5 14,5 0,0
12.07.2018 23:00:00 19,6 14,2 0,0
12.07.2018 22:00:00 20,3 14,3 0,0
12.07.2018 21:00:00 21,8 13,6 0,0
12.07.2018 20:00:00 22,6 12,9 0,0
12.07.2018 19:00:00 24,0 12,0 0,0
12.07.2018 18:00:00 25,5 12,8 0,0
12.07.2018 17:00:00 24,2 12,7 0,0
12.07.2018 16:00:00 24,3 11,5 0,0
12.07.2018 15:00:00 23,1 12,0 0,0
12.07.2018 14:00:00 21,2 12,7 0,0
12.07.2018 13:00:00 20,4 13,1 0,0
12.07.2018 12:00:00 17,4 13,9 0,0
12.07.2018 11:00:00 16,2 13,8 0,0
12.07.2018 10:00:00 15,0 13,1 0,4
12.07.2018 09:00:00 14,9 13,3 0,4

tt = temperature
td = dewpoint
rr = precipitation

Next stations